Ashland, WI

11:58 AM CDT on September 20, 2017 (GMT -0500)
Kennedy Memorial

Weather History for KASX - October, 2012

Change the Weather History Date:

Friday, October 26, 2012

  Actual Average Record
Temperature  
Mean Temperature 38 °F -  
Max Temperature 41 °F 54 °F 80 °F (1989)
Min Temperature 34 °F 32 °F 13 °F (1962)
Degree Days  
Heating Degree Days 28    
Moisture  
Dew Point 24 °F    
Average Humidity 62    
Maximum Humidity 76    
Minimum Humidity 49    
Precipitation  
Precipitation 0.00 in - - ()
Sea Level Pressure  
Sea Level Pressure 30.23 in    
Wind  
Wind Speed 11 mph (WSW)    
Max Wind Speed 18 mph    
Max Gust Speed 28 mph    
Visibility 10 miles    
Events      
Averages and records for this station are not official NWS values.
T = Trace of Precipitation, MM = Missing Value Source: NWS Daily Summary

Daily Weather History Graph

Daily Weather History Graph

Search for Another Location

Airport or City:

Trip Planner

Search our weather history database for the weather conditions in past years. The results will help you decide how hot, cold, wet, or windy it might be!

Date:

Astronomy

Oct. 26, 2012 Rise Set
Actual Time 7:37 AM CDT 5:56 PM CDT
Civil Twilight 7:06 AM CDT 6:28 PM CDT
Nautical Twilight 6:30 AM CDT 7:03 PM CDT
Astronomical Twilight 5:55 AM CDT 7:38 PM CDT
Moon 4:20 PM CDT (10/26) 4:24 AM CDT (10/26)
Length of Visible Light 11h 21m
Length of Day
10h 19m
Waxing Gibbous, 91% of the Moon is Illuminated
Oct 26
Waxing Gibbous
Oct 29
Full
Nov 6
Last Quarter
Nov 13
New
Nov 20
First Quarter

Hourly Weather History & Observations

Time (CDT) Temp. Windchill Dew Point Humidity Pressure Visibility Wind Dir Wind Speed Gust Speed Precip Events Conditions
12:53 AM 35.1 °F 27.4 °F 28.0 °F 76% 30.04 in 10.0 mi West 10.4 mph 18.4 mph N/A   Mostly Cloudy
1:53 AM 34.0 °F 25.5 °F 27.0 °F 75% 30.06 in 10.0 mi WSW 11.5 mph - N/A   Clear
2:53 AM 34.0 °F 25.5 °F 27.0 °F 75% 30.08 in 10.0 mi WSW 11.5 mph - N/A   Mostly Cloudy
3:53 AM 35.1 °F 26.4 °F 27.0 °F 72% 30.09 in 10.0 mi WSW 12.7 mph - N/A   Overcast
4:53 AM 35.1 °F 26.4 °F 27.0 °F 72% 30.10 in 10.0 mi WSW 12.7 mph 19.6 mph N/A   Overcast
6:53 AM 34.0 °F 25.5 °F 27.0 °F 75% 30.14 in 10.0 mi WSW 11.5 mph - N/A   Mostly Cloudy
8:53 AM 35.1 °F 27.9 °F 28.0 °F 76% 30.21 in 10.0 mi WSW 9.2 mph - N/A   Mostly Cloudy
9:53 AM 37.0 °F 29.8 °F 28.0 °F 70% 30.24 in 10.0 mi West 10.4 mph 17.3 mph N/A   Overcast
10:53 AM 37.9 °F 29.6 °F 21.9 °F 53% 30.27 in 10.0 mi West 13.8 mph 27.6 mph N/A   Overcast
11:53 AM 39.0 °F 31.4 °F 24.1 °F 55% 30.28 in 10.0 mi West 12.7 mph 27.6 mph N/A   Overcast
12:53 PM 41.0 °F 34.3 °F 23.0 °F 49% 30.27 in 10.0 mi West 11.5 mph 21.9 mph N/A   Overcast
1:53 PM 41.0 °F 32.2 °F 23.0 °F 49% 30.27 in 10.0 mi West 18.4 mph 25.3 mph N/A   Overcast
2:53 PM 39.0 °F 31.4 °F 21.9 °F 50% 30.28 in 10.0 mi West 12.7 mph 23.0 mph N/A   Overcast
3:53 PM 39.0 °F 30.6 °F 21.9 °F 50% 30.28 in 10.0 mi West 15.0 mph 24.2 mph N/A   Overcast
4:53 PM 37.9 °F 32.1 °F 21.9 °F 53% 30.28 in 10.0 mi West 8.1 mph - N/A   Overcast
5:53 PM 37.0 °F 30.4 °F 21.0 °F 52% 30.29 in 10.0 mi WSW 9.2 mph - N/A   Overcast
6:53 PM 36.0 °F 30.3 °F 21.9 °F 57% 30.30 in 10.0 mi WSW 6.9 mph - N/A   Overcast
7:53 PM 35.1 °F 31.0 °F 23.0 °F 61% 30.32 in 10.0 mi SW 4.6 mph - N/A   Overcast
8:53 PM 35.1 °F 30.1 °F 21.9 °F 59% 30.32 in 10.0 mi WSW 5.8 mph - N/A   Overcast
9:53 PM 34.0 °F 31.0 °F 21.9 °F 61% 30.32 in 10.0 mi SW 3.5 mph - N/A   Overcast
10:53 PM 34.0 °F 29.8 °F 21.9 °F 61% 30.32 in 10.0 mi WSW 4.6 mph - N/A   Overcast
11:53 PM 34.0 °F 28.8 °F 21.9 °F 61% 30.32 in 10.0 mi SW 5.8 mph - N/A   Overcast